SAS1984 LEIB-EKCH

Flight info

Callsign SAS1984
Flight time N/A
Altitude 36000
Route KABRE DCT MEBEL DCT UBIMA DCT ZUE/N0437F380 T125 ROMIR N851 VEDOK/N0435F370 DCT KEMAD DCT MAKEL N851 GESKA Z711 MONAK
Aircraft A319/M-SDE3FGIJ1RWXY/LB1

Departure

Time 2026-05-04 12:54
Airport Ibiza Airport (LEIB)

Arrival

Time N/A
Airport Copenhagen Kastrup Airport (EKCH)
Time Latitude Longitude Altitude Speed Heading
2026-05-04 12:09 38.87653 1.37149 9 ft 0 kts 17°
2026-05-04 12:43 38.87639 1.37146 10 ft 4 kts 322°
2026-05-04 12:43 38.87620 1.37159 10 ft 4 kts 348°
2026-05-04 12:43 38.87595 1.37161 11 ft 4 kts 25°
2026-05-04 12:44 38.87580 1.37144 11 ft 0 kts 62°
2026-05-04 12:48 38.87580 1.37145 11 ft 1 kts 62°
2026-05-04 12:48 38.87585 1.37159 11 ft 2 kts 64°
2026-05-04 12:48 38.87593 1.37178 10 ft 4 kts 61°
2026-05-04 12:49 38.87608 1.37212 8 ft 5 kts 61°
2026-05-04 12:49 38.87627 1.37258 9 ft 6 kts 62°
2026-05-04 12:49 38.87644 1.37299 8 ft 5 kts 62°
2026-05-04 12:49 38.87663 1.37341 8 ft 7 kts 60°
2026-05-04 12:50 38.87689 1.37401 8 ft 8 kts 61°
2026-05-04 12:50 38.87706 1.37463 9 ft 8 kts 86°
2026-05-04 12:50 38.87660 1.37507 8 ft 10 kts 153°
2026-05-04 12:50 38.87589 1.37558 9 ft 13 kts 140°
2026-05-04 12:51 38.87616 1.37661 9 ft 14 kts 59°
2026-05-04 12:51 38.87662 1.37773 9 ft 15 kts 63°
2026-05-04 12:51 38.87713 1.37893 9 ft 16 kts 60°
2026-05-04 12:51 38.87767 1.38019 9 ft 16 kts 62°
2026-05-04 12:52 38.87820 1.38151 11 ft 17 kts 63°
2026-05-04 12:52 38.87874 1.38287 9 ft 17 kts 63°
2026-05-04 12:52 38.87934 1.38423 9 ft 18 kts 63°
2026-05-04 12:52 38.87993 1.38570 9 ft 19 kts 62°
2026-05-04 12:53 38.87935 1.38677 11 ft 16 kts 150°
2026-05-04 12:53 38.87841 1.38658 11 ft 19 kts 238°
2026-05-04 12:53 38.87707 1.38332 13 ft 70 kts 242°
2026-05-04 12:53 38.87388 1.37571 10 ft 123 kts 242°
2026-05-04 12:54 38.86913 1.36428 90 ft 160 kts 240°
2026-05-04 12:54 38.86276 1.35248 688 ft 161 kts 226°
2026-05-04 12:54 38.85511 1.34200 1332 ft 162 kts 226°
2026-05-04 12:54 38.84711 1.33088 1671 ft 180 kts 227°
2026-05-04 12:55 38.83836 1.31835 2066 ft 196 kts 227°
2026-05-04 12:55 38.82925 1.30523 2861 ft 198 kts 228°
2026-05-04 12:55 38.82009 1.29203 3665 ft 199 kts 228°
2026-05-04 12:55 38.81048 1.27918 4505 ft 201 kts 218°
2026-05-04 12:56 38.79727 1.27257 5178 ft 217 kts 189°
2026-05-04 12:56 38.78123 1.27485 5558 ft 247 kts 174°
2026-05-04 12:56 38.76374 1.27903 6169 ft 261 kts 173°
2026-05-04 12:56 38.74570 1.28340 6977 ft 265 kts 173°
2026-05-04 12:57 38.72741 1.28778 7813 ft 269 kts 174°
2026-05-04 12:57 38.70887 1.29213 8648 ft 274 kts 174°
2026-05-04 12:57 38.69000 1.29651 9468 ft 277 kts 174°
2026-05-04 12:57 38.67089 1.30093 10247 ft 281 kts 175°
2026-05-04 12:58 38.65144 1.30541 10992 ft 285 kts 175°
2026-05-04 12:58 38.63182 1.30992 11708 ft 289 kts 175°
2026-05-04 12:58 38.61212 1.31656 12429 ft 300 kts 161°
2026-05-04 12:58 38.59458 1.33208 13151 ft 316 kts 139°
2026-05-04 12:59 38.58194 1.35630 13467 ft 346 kts 115°
2026-05-04 12:59 38.57651 1.38751 13674 ft 371 kts 101°
2026-05-04 12:59 38.57258 1.42048 14164 ft 379 kts 101°
2026-05-04 12:59 38.56858 1.45396 14715 ft 384 kts 102°
2026-05-04 13:00 38.56443 1.48789 15266 ft 389 kts 102°
2026-05-04 13:00 38.56013 1.52227 15829 ft 394 kts 103°
2026-05-04 13:00 38.55713 1.55734 16352 ft 402 kts 94°
2026-05-04 13:00 38.55896 1.59338 16895 ft 411 kts 82°
2026-05-04 13:01 38.56609 1.62892 17436 ft 417 kts 70°
2026-05-04 13:01 38.57851 1.66264 17981 ft 422 kts 59°
2026-05-04 13:01 38.59323 1.69521 18489 ft 426 kts 59°
2026-05-04 13:01 38.60807 1.72829 18973 ft 431 kts 59°
2026-05-04 13:02 38.62296 1.76170 19478 ft 434 kts 60°
2026-05-04 13:02 38.63792 1.79546 19982 ft 438 kts 60°
2026-05-04 13:02 38.65276 1.82906 20514 ft 441 kts 60°
2026-05-04 13:02 38.66790 1.86336 21018 ft 445 kts 60°
2026-05-04 13:03 38.68334 1.89838 21505 ft 448 kts 60°
2026-05-04 13:03 38.69853 1.93280 21965 ft 452 kts 61°
2026-05-04 13:03 38.71404 1.96795 22436 ft 456 kts 61°
2026-05-04 13:03 38.72987 2.00390 22924 ft 459 kts 62°
2026-05-04 13:04 38.74564 2.03976 23384 ft 463 kts 62°
2026-05-04 13:04 38.76151 2.07583 23784 ft 467 kts 62°
2026-05-04 13:04 38.77727 2.11163 24161 ft 469 kts 62°
2026-05-04 13:04 38.79334 2.14812 24555 ft 472 kts 62°
2026-05-04 13:05 38.80951 2.18489 24950 ft 475 kts 62°
2026-05-04 13:05 38.82572 2.22183 25325 ft 477 kts 62°
2026-05-04 13:05 38.84227 2.25962 25708 ft 480 kts 62°
2026-05-04 13:05 38.85839 2.29652 26051 ft 482 kts 62°
2026-05-04 13:06 38.87477 2.33414 26469 ft 484 kts 62°
2026-05-04 13:06 38.89126 2.37207 26804 ft 488 kts 62°
2026-05-04 13:06 38.90783 2.41013 27159 ft 490 kts 62°
2026-05-04 13:06 38.92451 2.44847 27514 ft 493 kts 62°
2026-05-04 13:07 38.94131 2.48708 27869 ft 496 kts 62°
2026-05-04 13:07 38.95812 2.52573 28218 ft 498 kts 62°
2026-05-04 13:07 38.97504 2.56476 28558 ft 501 kts 62°
2026-05-04 13:07 38.99198 2.60400 28891 ft 503 kts 62°
2026-05-04 13:08 39.00898 2.64336 29224 ft 505 kts 62°
2026-05-04 13:08 39.02606 2.68288 29515 ft 507 kts 62°
2026-05-04 13:08 39.04323 2.72270 29859 ft 509 kts 62°
2026-05-04 13:08 39.06038 2.76252 30154 ft 511 kts 62°
2026-05-04 13:09 39.07764 2.80262 30417 ft 513 kts 62°
2026-05-04 13:09 39.09487 2.84282 30684 ft 514 kts 62°
2026-05-04 13:09 39.11248 2.88306 30910 ft 517 kts 58°
2026-05-04 13:09 39.13349 2.92075 31160 ft 519 kts 49°
2026-05-04 13:10 39.15841 2.95437 31407 ft 519 kts 40°
2026-05-04 13:10 39.18665 2.98302 31729 ft 515 kts 31°
2026-05-04 13:10 39.21734 3.00637 32071 ft 511 kts 24°
2026-05-04 13:10 39.24885 3.02757 32418 ft 511 kts 24°
2026-05-04 13:11 39.28034 3.04884 32757 ft 510 kts 24°
2026-05-04 13:11 39.31173 3.07013 33145 ft 509 kts 24°
2026-05-04 13:11 39.34305 3.09140 33512 ft 508 kts 24°
2026-05-04 13:11 39.37436 3.11267 33852 ft 508 kts 24°
2026-05-04 13:12 39.40554 3.13386 34192 ft 507 kts 24°
2026-05-04 13:12 39.43672 3.15505 34513 ft 506 kts 24°
2026-05-04 13:12 39.46790 3.17626 34834 ft 505 kts 24°
2026-05-04 13:12 39.49888 3.19738 35138 ft 504 kts 24°
2026-05-04 13:13 39.51987 3.21171 35345 ft 503 kts 24°
2026-05-04 13:13 39.55084 3.23291 35676 ft 502 kts 24°
2026-05-04 13:13 39.58173 3.25408 35918 ft 502 kts 24°